This demonstration page uses our WeatherBlox Daily Observations layout. Learn more.

Left ArrowRight Arrow

39.92423, -83.80882

Hourly Observations for April 26, 2020

Temp ( °F °C ) Dew Point ( °F °C ) Humidity (%) Winds ( mph kmh ) Pressure ( in mb ) Visibility ( mi km ) Precip ( " mm )
12:06 am 00:06 Cloudy 50 10 50 10 100 100 NNE 13 20 29.73 1007 10 16.0934 0 0
12:27 am 00:27 Cloudy 50 10 50 10 100 100 NNE 14 22 29.73 1007 9 14.48406 0 0
12:41 am 00:41 Cloudy with Light Rain 48 9 48 9 100 100 NNE 15 24 29.74 1007 7 11.26538 0.001 0.001
12:56 am 00:56 Cloudy with Light Rain 49 9.4 49 9.4 100 100 NNE 13 20 29.72 1006 8 12.87472 0.001 0.001
1:11 am 01:11 Cloudy with Light Rain 48 9 48 9 100 100 NNE 14 22 29.74 1007 4 6.43736 0.01 0.254
1:44 am 01:44 Cloudy with Light Rain 48 9 48 9 100 100 NNE 14 22 29.73 1007 6 9.65604 0.04 1.016
1:56 am 01:56 Cloudy with Light Rain 48 8.9 48 8.9 100 100 NNE 14 22 29.7 1006 7 11.26538 0.04 1.016
2:25 am 02:25 Cloudy with Rain 46 8 46 8 100 100 NNE 15 24 29.71 1006 6 9.65604 0 0
2:46 am 02:46 Cloudy with Rain 46 8 46 8 100 100 NNE 14 22 29.71 1006 5 8.0467 0 0
2:56 am 02:56 Cloudy with Light Rain 47 8.3 47 8.3 100 100 NNE 15 24 29.69 1005 6 9.65604 0 0
3:56 am 03:56 Cloudy with Light Rain 46 7.8 46 7.8 100 100 N 16 26 29.67 1005 7 11.26538 0 0
4:03 am 04:03 Cloudy with Rain 45 7 45 7 100 100 N 14 22 29.7 1006 7 11.26538 0 0
4:14 am 04:14 Cloudy with Rain 45 7 45 7 100 100 N 14 22 29.7 1006 7 11.26538 0 0
4:56 am 04:56 Cloudy with Rain 44 6.7 44 6.7 100 100 N 12 19 29.69 1005 8 12.87472 0 0
5:56 am 05:56 Cloudy with Light Rain 44 6.7 44 6.7 100 100 N 15 24 29.7 1006 8 12.87472 0 0
6:56 am 06:56 Cloudy with Light Rain 43 6.1 43 6.1 100 100 N 14 22 29.7 1006 10 16.0934 0 0
7:56 am 07:56 Cloudy with Light Rain 44 6.7 44 6.7 100 100 N 15 24 29.72 1007 10 16.0934 0 0
8:56 am 08:56 Cloudy with Light Rain 43 6.1 43 6.1 100 100 N 20 31 29.74 1007 10 16.0934 0 0
9:56 am 09:56 Cloudy with Light Rain 44 6.7 44 6.7 100 100 N 21 33 29.75 1007 9 14.48406 0 0
10:56 am 10:56 Cloudy with Light Rain 45 7.2 45 7.2 100 100 N 18 30 29.76 1008 10 16.0934 0 0
11:56 am 11:56 Cloudy with Light Rain 45 7.2 45 7.2 100 100 N 22 35 29.79 1009 10 16.0934 0 0
12:38 pm 12:38 Cloudy with Rain 45 7 45 7 100 100 N 22 35 29.8 1009 9 14.48406 0 0
12:56 pm 12:56 Cloudy with Light Rain 46 7.8 46 7.8 100 100 N 17 28 29.8 1009 10 16.0934 0 0
1:56 pm 13:56 Cloudy with Light Rain 46 7.8 46 7.8 100 100 N 20 31 29.83 1010 10 16.0934 0 0
2:56 pm 14:56 Cloudy with Light Rain 46 7.8 46 7.8 100 100 N 20 31 29.86 1011 10 16.0934 0 0
3:56 pm 15:56 Cloudy with Light Rain 47 8.3 47 8.3 100 100 N 22 35 29.89 1012 10 16.0934 0 0
4:56 pm 16:56 Cloudy with Light Rain 46 7.8 46 7.8 100 100 N 28 44 29.93 1014 10 16.0934 0 0
5:56 pm 17:56 Cloudy 48 8.9 46 7.8 93 93 N 25 41 29.97 1015 10 16.0934 0 0
6:12 pm 18:12 Cloudy 46 8 46 8 100 100 N 20 31 29.99 1016 10 16.0934 0 0
6:56 pm 18:56 Cloudy 50 10 44 6.7 80 80 N 15 24 30.01 1016 10 16.0934 0 0
7:56 pm 19:56 Mostly Cloudy 50 10 43 6.1 77 77 NNW 13 20 30.02 1017 10 16.0934 0 0
8:56 pm 20:56 Clear 47 8.3 41 5 80 80 N 8 13 30.06 1018 10 16.0934 0 0
9:56 pm 21:56 Clear 46 7.8 40 4.4 79 79 NNE 9 15 30.1 1019 10 16.0934 0 0
10:56 pm 22:56 Clear 45 7.2 40 4.4 83 83 NNE 9 15 30.12 1020 10 16.0934 0 0
11:56 pm 23:56 Clear 42 5.6 39 3.9 89 89 N 7 11 30.14 1021 10 16.0934 0 0

Powered by AerisWeather